Powrót do katalogu

STARLINK-4318

AktywnyŁącznośćSSO
NORAD 53086·PAYLOAD·🇺🇸 United States

Wystrzelony Jul 11, 2022 z Vandenberg Space Force Base

Loading…

Następne Przeloty (najbliższe 24 godziny)

TLE

ŚwieżeSource: CelesTrak SupGP

Epoka: Sep 14, 2026, 21:11 UTC

1 53086C 22077AV  26257.88312500  .00080287  00000+0  24921-2 0  2570
2 53086  97.2859  72.6986 0001511  94.9178 136.2644 15.33400817    17

Śledź STARLINK-4318 w czasie rzeczywistym z AllMySat

Download on the App Store